[[{"header":{"parameterUnit":"m.s-1","parameterCategory":2,"la1":30.2991,"la2":30.254,"lo1":-89.0895,"lo2":-89.0444,"dy":0.0017,"dx":0.0017,"nx":28,"ny":28,"refTime":"2024-04-15T03:00:00:Z","depth":"0","parameterNumber":2,"parameterNumberName":"U-component_of_CURRENTS"},"data":[0,0,0,0,0,0,0,0,0,0,0,0,0,0,0,0,0,0,0,0,0,0,0,0,0,0,0,0,0,0,0,0,0,0,0,0,0,0,0,0,0,0,0,0,0,0,0,0,0,0,0,0,0,0,0,0,0,0,0.3216,0.3218,0,0.3382,0.3384,0.3385,0.3405,0.3404,0.3402,0.3401,0.3529,0.3534,0.3539,0,0,0,0,0,0,0,0,0,0,0,0,0,0.3026,0.3028,0.3215,0.3218,0.322,0.3382,0.3384,0.3386,0.3405,0.3404,0.3402,0.34,0.3528,0.3533,0.3539,0,0,0,0,0,0,0,0,0,0,0,0,0,0.3139,0.3029,0.3215,0.3251,0.3256,0.3381,0.3384,0.3386,0.3406,0.3404,0.3401,0.3399,0.3526,0.3533,0.354,0.3626,0,0,0.3561,0.3565,0,0,0,0,0,0,0,0,0.3132,0.3145,0.3244,0.3249,0.3255,0.3373,0.3364,0.3466,0.3406,0.3346,0.3401,0.3398,0.3477,0.3488,0.3521,0.3632,0.3637,0.3562,0.3566,0.3569,0.3571,0,0,0,0,0,0,0,0.3124,0.3139,0.3279,0.3246,0.3253,0.3298,0.331,0.3384,0.3419,0.3351,0.3354,0.3377,0.3479,0.3514,0.3524,0.3639,0.3562,0.3568,0.3573,0.3575,0.3883,0.3887,0,0,0,0,0,0,0.3106,0.3132,0.3274,0.3284,0.319,0.3302,0.3316,0.3335,0.3419,0.3431,0.3379,0.3378,0.3503,0.3515,0.3528,0.3661,0.3569,0.3576,0.358,0.3879,0.3884,0.3888,0,0,0,0,0,0,0.3101,0.3117,0.3267,0.3214,0.3236,0.3307,0.3329,0.334,0.3378,0.3441,0.345,0.3406,0.3502,0.3518,0.3622,0.3664,0.3579,0.3586,0.3874,0.388,0.3886,0.3909,0,0,0,0,0,0,0.3095,0.3114,0.3128,0.3212,0.3238,0.3364,0.3332,0.3344,0.3396,0.3396,0.3468,0.3477,0.3501,0.3612,0.363,0.3672,0.3591,0.3869,0.3877,0.3884,0.3904,0.3915,0.3925,0,0,0,0,0,0.3088,0.3115,0.3127,0.3145,0.3252,0.3367,0.3386,0.3427,0.3399,0.3446,0.3491,0.3475,0.367,0.3622,0.3641,0.3687,0.3866,0.3875,0.3883,0.3899,0.3913,0.3925,0,0,0,0,0,0,0.3038,0.3123,0.3137,0.3187,0.328,0.3371,0.3418,0.3436,0.3509,0.3502,0.3532,0.3549,0.3658,0.3684,0.3629,0.3803,0.3764,0.3777,0.3769,0.3783,0.3794,0.3814,0.3597,0,0,0,0,0,0.3035,0.3078,0.3174,0.3219,0.3266,0.3341,0.3389,0.3425,0.3498,0.3525,0.3577,0.3638,0.3715,0.3753,0.3833,0.3929,0.3958,0.3974,0.3985,0.3993,0.4028,0.407,0.4086,0.3917,0.3917,0.3917,0,0,0.3026,0.3081,0.3104,0.3213,0.3282,0.3383,0.3365,0.3456,0.3527,0.3532,0.364,0.3688,0.3755,0.3865,0.3914,0.3884,0.4068,0.4004,0.401,0.4042,0.4081,0.4096,0.411,0.3923,0.3922,0.3921,0,0,0.3062,0.3087,0.3153,0.3242,0.3359,0.3414,0.3441,0.3551,0.3584,0.3702,0.3717,0.38,0.3915,0.3975,0.4014,0.4142,0.413,0.4154,0.4214,0.4253,0.4266,0.4277,0.4366,0.4385,0.4147,0.4147,0.4148,0,0.3052,0.315,0.3194,0.3302,0.3376,0.3429,0.3534,0.3595,0.372,0.3749,0.3745,0.3918,0.3976,0.4089,0.4145,0.4165,0.4192,0.4142,0.4261,0.4273,0.4284,0.4372,0.4393,0.415,0.4149,0.4149,0.4149,0,0.3158,0.3247,0.3301,0.3443,0.3521,0.3627,0.3716,0.3782,0.3812,0.3861,0.3974,0.4058,0.4146,0.4182,0.4213,0.4326,0.4324,0.4267,0.4209,0.4302,0.439,0.4411,0.4153,0.4152,0.4151,0.4151,0,0,0.3123,0.3333,0.3357,0.3447,0.3606,0.3683,0.3787,0.3898,0.3939,0.404,0.4105,0.4256,0.4258,0.431,0.4339,0.4397,0.4525,0.4375,0.4376,0.4435,0.4645,0.4507,0.4517,0.4456,0.4459,0.4462,0.4683,0,0.3207,0.3415,0.3486,0.3669,0.3789,0.3852,0.3937,0.4022,0.4073,0.4148,0.4207,0.4293,0.4311,0.4346,0.4412,0.4496,0.4578,0.4474,0.4575,0.4581,0.4419,0.4535,0.4233,0.439,0.4704,0.4707,0.471,0,0.3305,0.3432,0.3628,0.379,0.3837,0.3929,0.4035,0.4119,0.4203,0.4232,0.43,0.4333,0.4471,0.4443,0.4633,0.4553,0.4631,0.4687,0.4693,0.4572,0.448,0.4349,0.4417,0.4293,0.4742,0.4739,0.4737,0,0.3302,0.3524,0.3672,0.3748,0.3936,0.3989,0.4055,0.4141,0.4186,0.4279,0.4317,0.4429,0.4506,0.4601,0.4727,0.4682,0.4916,0.4846,0.4812,0.4805,0.4578,0.4543,0.4508,0.4993,0.4993,0.4992,0.4991,0,0.3385,0.3503,0.3681,0.3781,0.389,0.4,0.4084,0.4146,0.4225,0.4281,0.4352,0.4427,0.4545,0.4668,0.4763,0.4862,0.4941,0.4873,0.4852,0.4583,0.4547,0.445,0.4409,0.5,0.4999,0.4997,0.4996,0,0.3392,0.3523,0.3694,0.3876,0.3914,0.3986,0.4087,0.4137,0.4215,0.4294,0.4326,0.4462,0.4618,0.4737,0.4922,0.4902,0.4853,0.5024,0.4727,0.4664,0.4438,0.4408,0.4309,0.4193,0.5012,0.5009,0.5008,0,0.3421,0.3528,0.373,0.3792,0.3878,0.3977,0.4028,0.4117,0.4164,0.4314,0.4355,0.4523,0.4619,0.4829,0.482,0.4929,0.4832,0.47,0.4547,0.4421,0.4377,0.4264,0.4166,0.4299,0.4291,0.4285,0.428,0,0.347,0.3546,0.3682,0.3801,0.3879,0.3939,0.4022,0.405,0.4155,0.4219,0.4337,0.4428,0.4587,0.4517,0.4603,0.4628,0.4401,0.4575,0.4501,0.3879,0.3698,0.3573,0.4217,0.4226,0.4231,0.4235,0.4238,0.424,0.3476,0.3554,0.3713,0.3797,0.3861,0.3876,0.3858,0.3946,0.3985,0.4016,0.4209,0.4238,0.4214,0.4266,0.4262,0.3992,0.4096,0.3821,0.3832,0.3762,0.3507,0.4059,0.3982,0.3985,0.3989,0.3992,0.3994,0,0.347,0.3566,0.3677,0.3755,0.3747,0.3795,0.3818,0.3751,0.3731,0.3844,0.3892,0.38,0.3688,0.3666,0.3431,0.3257,0.3134,0.3164,0.2931,0.2902,0.3433,0.3252,0.2936,0.2936,0.2936,0.2936,0.2936,0.2937,0.3477,0.3575,0.3627,0.3605,0.3615,0.3495,0.345,0.3393,0.3411,0.3315,0.324,0.3271,0.3263,0.307,0.2817,0.2743,0.2572,0.2388,0.2526,0.2875,0.2936,0.2995,0.2814,0.2412,0.2411,0.1801,0.1796,0.1793]},{"header":{"parameterUnit":"m.s-1","parameterCategory":2,"la1":30.2991,"la2":30.254,"lo1":-89.0895,"lo2":-89.0444,"dy":0.0017,"dx":0.0017,"nx":28,"ny":28,"refTime":"2024-04-15T03:00:00:Z","depth":"0","parameterNumber":3,"parameterNumberName":"V-component_of_CURRENTS"},"data":[0,0,0,0,0,0,0,0,0,0,0,0,0,0,0,0,0,0,0,0,0,0,0,0,0,0,0,0,0,0,0,0,0,0,0,0,0,0,0,0,0,0,0,0,0,0,0,0,0,0,0,0,0,0,0,0,0,0,-0.0107,-0.0109,0,-0.024,-0.0242,-0.0244,-0.0302,-0.0301,-0.0301,-0.03,-0.0427,-0.043,-0.0434,0,0,0,0,0,0,0,0,0,0,0,0,0,0.0012,0.0011,-0.0107,-0.0109,-0.011,-0.024,-0.0242,-0.0244,-0.0302,-0.0301,-0.0301,-0.03,-0.0425,-0.043,-0.0434,0,0,0,0,0,0,0,0,0,0,0,0,0,-0.0074,0.001,-0.0107,-0.0153,-0.0158,-0.024,-0.0242,-0.0245,-0.0302,-0.0301,-0.03,-0.03,-0.0424,-0.0429,-0.0435,-0.0482,0,0,-0.0452,-0.0455,0,0,0,0,0,0,0,0,-0.0069,-0.0078,-0.0145,-0.015,-0.0156,-0.0252,-0.0246,-0.0323,-0.0302,-0.0249,-0.03,-0.03,-0.0367,-0.0377,-0.0406,-0.0488,-0.0493,-0.0453,-0.0456,-0.0458,-0.046,0,0,0,0,0,0,0,-0.0063,-0.0074,-0.0162,-0.0146,-0.0153,-0.0196,-0.0207,-0.0262,-0.0311,-0.0254,-0.0258,-0.027,-0.037,-0.0401,-0.041,-0.0495,-0.0452,-0.0457,-0.0461,-0.0463,-0.0575,-0.0574,0,0,0,0,0,0,-0.0039,-0.0068,-0.0158,-0.0166,-0.0108,-0.0198,-0.0211,-0.0223,-0.0311,-0.0323,-0.027,-0.0272,-0.0392,-0.0403,-0.0414,-0.0421,-0.0458,-0.0464,-0.0467,-0.0575,-0.0574,-0.0574,0,0,0,0,0,0,-0.0036,-0.0045,-0.0152,-0.0118,-0.0134,-0.02,-0.0215,-0.0226,-0.0258,-0.0323,-0.0335,-0.0289,-0.0392,-0.0406,-0.0465,-0.0428,-0.0466,-0.0471,-0.0575,-0.0575,-0.0574,-0.0469,0,0,0,0,0,0,-0.0032,-0.0044,-0.0046,-0.0116,-0.0135,-0.0207,-0.0215,-0.0229,-0.0265,-0.0269,-0.0343,-0.0354,-0.0392,-0.0456,-0.047,-0.0437,-0.0476,-0.0576,-0.0575,-0.0574,-0.0473,-0.0465,-0.0458,0,0,0,0,0,-0.0027,-0.0029,-0.0046,-0.0057,-0.0136,-0.0208,-0.0223,-0.0268,-0.0266,-0.0292,-0.0332,-0.0352,-0.046,-0.0462,-0.0478,-0.0445,-0.0576,-0.0575,-0.0574,-0.0477,-0.0467,-0.0458,0,0,0,0,0,0,0.0018,-0.0038,-0.0057,-0.0077,-0.014,-0.0217,-0.0234,-0.0267,-0.0321,-0.0314,-0.0369,-0.0385,-0.0416,-0.0457,-0.0456,-0.0475,-0.0513,-0.0515,-0.0433,-0.0424,-0.0417,-0.0365,-0.048,0,0,0,0,0,0.0028,0.0012,-0.0058,-0.0077,-0.0099,-0.0166,-0.0198,-0.0233,-0.0287,-0.031,-0.036,-0.0399,-0.0427,-0.0447,-0.0493,-0.0519,-0.0511,-0.0503,-0.0495,-0.0488,-0.0458,-0.0428,-0.0413,-0.0571,-0.0571,-0.0571,0,0,0.0038,0.0007,-0.0003,-0.0069,-0.0112,-0.0145,-0.0184,-0.0229,-0.0245,-0.0315,-0.0346,-0.0387,-0.0432,-0.0452,-0.0466,-0.0479,-0.044,-0.0487,-0.0481,-0.0454,-0.0425,-0.0409,-0.0395,-0.057,-0.0571,-0.0571,0,0,0.005,0.0027,0.0016,-0.0029,-0.009,-0.0129,-0.0139,-0.0215,-0.0232,-0.0283,-0.031,-0.0322,-0.0406,-0.0402,-0.0413,-0.0395,-0.0407,-0.0417,-0.033,-0.0301,-0.0287,-0.0274,-0.0236,-0.0221,-0.0405,-0.0405,-0.0405,0,0.0066,0.0043,-0.0003,-0.0026,-0.0046,-0.0114,-0.013,-0.0164,-0.0249,-0.0236,-0.028,-0.0312,-0.0365,-0.0324,-0.0322,-0.0369,-0.0363,-0.0357,-0.0286,-0.0274,-0.0263,-0.0227,-0.0212,-0.04,-0.04,-0.0401,-0.0401,0,0.0065,0.0046,0.0038,-0.0003,-0.0033,-0.0062,-0.0106,-0.0123,-0.0147,-0.0168,-0.0152,-0.021,-0.0213,-0.0232,-0.0281,-0.0212,-0.0237,-0.0283,-0.0298,-0.0239,-0.0207,-0.0193,-0.0392,-0.0394,-0.0396,-0.0397,0,0,0.0102,0.0049,0.0047,0.0046,-0.0017,-0.0034,-0.0036,-0.0044,0.0004,-0.0059,0.0006,-0.0042,-0.0046,-0.0059,-0.0096,-0.0077,-0.0007,-0.0146,-0.0147,-0.0087,0.0067,0.004,0.0053,-0.0047,-0.0045,-0.0042,0.0061,0,0.0113,0.0096,0.0065,0.0062,0.0055,0.0024,0.0043,0.004,0.0038,0.0079,0.0076,0.0101,0.0014,0.0032,0.004,-0.0004,0.0034,-0.0029,-0.0017,-0.0016,-0.0029,0.007,0.0068,0.0159,0.0075,0.0077,0.0079,0,0.0125,0.0115,0.0117,0.013,0.0132,0.0134,0.0196,0.0199,0.0248,0.0257,0.0295,0.0274,0.0309,0.0219,0.0229,0.0186,0.0147,0.0114,0.0116,0.0072,-0.0015,0.0082,0.0188,0.0037,0.0101,0.0099,0.0097,0,0.0188,0.0163,0.0181,0.0172,0.017,0.0207,0.0224,0.0269,0.0326,0.0388,0.0447,0.0459,0.0495,0.0443,0.0355,0.0295,0.0368,0.0275,0.0236,0.0233,0.0228,0.022,0.0212,0.0319,0.0319,0.0318,0.0318,0,0.0221,0.0237,0.0221,0.0231,0.0306,0.0283,0.0391,0.0415,0.0492,0.0604,0.0557,0.066,0.0548,0.0558,0.0447,0.0404,0.0447,0.0296,0.0274,0.0261,0.0255,0.0116,0.0016,0.0322,0.0321,0.0321,0.032,0,0.0289,0.0262,0.0294,0.0311,0.0335,0.0397,0.0489,0.0575,0.0625,0.0774,0.0805,0.0837,0.0853,0.0749,0.0691,0.0551,0.0414,0.0466,0.0462,0.0437,0.021,0.0116,0.0109,0.0052,0.0437,0.0437,0.0438,0,0.0322,0.0339,0.0373,0.0423,0.0439,0.0524,0.0601,0.0647,0.0743,0.0902,0.0993,0.1052,0.1141,0.1041,0.082,0.0675,0.0499,0.0526,0.0404,0.0243,0.0122,0.0046,-0.0007,0.0444,0.0444,0.0445,0.0445,0,0.0402,0.0413,0.0448,0.0538,0.0615,0.0703,0.081,0.0905,0.0998,0.1141,0.1331,0.1419,0.1335,0.1207,0.0963,0.0808,0.0404,0.0523,0.0369,0.0158,0.0067,-0.0014,0.0326,0.0446,0.0446,0.0446,0.0446,0.0446,0.0488,0.0535,0.0584,0.0676,0.0762,0.088,0.0986,0.1116,0.1301,0.1533,0.1591,0.1783,0.1504,0.1191,0.0961,0.0468,0.046,0.0285,0.02,0.015,0.0051,0.0398,0.0467,0.0467,0.0467,0.0467,0.0467,0,0.0606,0.0644,0.0727,0.0835,0.0945,0.096,0.113,0.125,0.149,0.1735,0.193,0.1934,0.1599,0.1185,0.0534,0.0199,0.0062,0.0,-0.0113,-0.0142,0.0192,0.0141,0.0128,0.0128,0.0128,0.0128,0.0128,0.0129,0.0674,0.0771,0.0792,0.097,0.1056,0.1208,0.1309,0.1492,0.1687,0.1991,0.2158,0.2256,0.1899,0.0778,0.0021,-0.0156,-0.0377,-0.042,-0.0522,-0.033,-0.0311,-0.0293,-0.0362,-0.0481,-0.0482,-0.082,-0.0824,-0.0827]}],[{"header":{"parameterUnit":"m.s-1","parameterCategory":2,"la1":30.2991,"la2":30.254,"lo1":-89.0895,"lo2":-89.0444,"dy":0.0017,"dx":0.0017,"nx":28,"ny":28,"refTime":"2024-04-15T03:00:00:Z","depth":"2","parameterNumber":2,"parameterNumberName":"U-component_of_CURRENTS"},"data":[0,0,0,0,0,0,0,0,0,0,0,0,0,0,0,0,0,0,0,0,0,0,0,0,0,0,0,0,0,0,0,0,0,0,0,0,0,0,0,0,0,0,0,0,0,0,0,0,0,0,0,0,0,0,0,0,0,0,0.2431,0.2432,0,0.2424,0.2423,0.2422,0.2379,0.2379,0.2379,0.2379,0.2455,0.2457,0.2459,0,0,0,0,0,0,0,0,0,0,0,0,0,0.2377,0.2377,0.2431,0.2432,0.2433,0.2424,0.2423,0.2422,0.2379,0.2379,0.2379,0.2379,0.2454,0.2456,0.2459,0,0,0,0,0,0,0,0,0,0,0,0,0,0.2378,0.2378,0.2431,0.2419,0.2418,0.2424,0.2423,0.2421,0.2379,0.2379,0.2379,0.2379,0.2453,0.2456,0.2459,0.2479,0,0,0.2468,0.247,0,0,0,0,0,0,0,0,0.2378,0.2378,0.242,0.242,0.2419,0.2412,0.2432,0.2448,0.2379,0.2382,0.2379,0.2379,0.2455,0.2458,0.244,0.2482,0.2485,0.2469,0.2471,0.2472,0.2473,0,0,0,0,0,0,0,0.2378,0.2378,0.2417,0.2421,0.2421,0.2404,0.2403,0.2433,0.2412,0.2382,0.2382,0.2398,0.2454,0.2437,0.2442,0.2487,0.2469,0.2471,0.2473,0.2474,0.2704,0.2708,0,0,0,0,0,0,0.2403,0.2379,0.2417,0.2418,0.241,0.2406,0.2404,0.2405,0.241,0.2413,0.2399,0.2397,0.2432,0.2438,0.2445,0.2603,0.2472,0.2475,0.2476,0.27,0.2705,0.271,0,0,0,0,0,0,0.2401,0.2405,0.2418,0.2408,0.2409,0.2408,0.2409,0.2406,0.2412,0.2424,0.2426,0.2413,0.2432,0.244,0.2502,0.2601,0.2476,0.2479,0.2695,0.2702,0.2708,0.2835,0,0,0,0,0,0,0.2399,0.2404,0.2405,0.2409,0.2411,0.2436,0.241,0.2406,0.2427,0.2424,0.2437,0.2442,0.2433,0.2497,0.2505,0.2603,0.2481,0.269,0.2698,0.2706,0.2825,0.2845,0.2862,0,0,0,0,0,0.2397,0.2403,0.2404,0.2409,0.2414,0.2438,0.2436,0.2428,0.2428,0.2432,0.2454,0.2443,0.2555,0.2502,0.251,0.2612,0.2686,0.2696,0.2705,0.2817,0.2841,0.2861,0,0,0,0,0,0,0.2383,0.24,0.2401,0.2413,0.2434,0.2435,0.2445,0.2448,0.2463,0.2461,0.2474,0.2481,0.2581,0.2577,0.2518,0.2706,0.263,0.2641,0.2713,0.2735,0.2753,0.2806,0.2484,0,0,0,0,0,0.2383,0.2394,0.2412,0.243,0.2441,0.2449,0.2458,0.2451,0.2473,0.2476,0.2502,0.2547,0.2624,0.2659,0.2698,0.2785,0.2775,0.2866,0.2884,0.2899,0.2952,0.298,0.3005,0.2742,0.2742,0.2741,0,0,0.2385,0.2402,0.2407,0.2429,0.2442,0.2494,0.2451,0.2469,0.253,0.2488,0.2576,0.2603,0.266,0.2762,0.281,0.2772,0.297,0.2912,0.2924,0.297,0.2993,0.3018,0.3041,0.2748,0.2747,0.2746,0,0,0.242,0.2412,0.244,0.2471,0.2501,0.2515,0.2536,0.2552,0.2569,0.2646,0.2661,0.2751,0.2829,0.2905,0.2957,0.3106,0.306,0.3122,0.3263,0.3289,0.331,0.3329,0.3339,0.3358,0.3135,0.3135,0.3135,0,0.2424,0.2461,0.2455,0.2511,0.2557,0.2547,0.261,0.2639,0.2679,0.2717,0.2696,0.2883,0.2919,0.3104,0.3171,0.3154,0.3139,0.3166,0.331,0.3328,0.3345,0.3352,0.337,0.3143,0.3142,0.3141,0.314,0,0.2487,0.2529,0.2557,0.2634,0.2684,0.2719,0.278,0.2827,0.2858,0.2884,0.3032,0.309,0.3204,0.3252,0.327,0.3445,0.3384,0.3317,0.3244,0.3379,0.3377,0.3395,0.3153,0.315,0.3148,0.3146,0,0,0.2467,0.2571,0.2589,0.2643,0.2739,0.2782,0.2914,0.3005,0.3086,0.3149,0.327,0.3448,0.3449,0.3516,0.3549,0.3616,0.3727,0.3539,0.3536,0.3535,0.377,0.3609,0.361,0.3659,0.3663,0.3666,0.3715,0,0.2516,0.2625,0.2685,0.282,0.2876,0.2949,0.3074,0.3163,0.3229,0.3329,0.3424,0.3533,0.3557,0.3614,0.37,0.3719,0.3781,0.372,0.3657,0.3657,0.3482,0.3629,0.3323,0.333,0.3731,0.3734,0.3736,0,0.2559,0.2627,0.2746,0.2897,0.2933,0.3036,0.3212,0.3313,0.3455,0.3501,0.3636,0.3663,0.3847,0.3791,0.3943,0.389,0.3871,0.3869,0.3867,0.3695,0.3528,0.3266,0.3345,0.3764,0.3762,0.376,0.3758,0,0.2515,0.2677,0.2766,0.2819,0.2989,0.3088,0.3197,0.3361,0.3455,0.3603,0.3673,0.3829,0.3915,0.3959,0.3987,0.3957,0.4077,0.4001,0.3849,0.3834,0.3559,0.3513,0.4089,0.4089,0.4089,0.4089,0.4088,0,0.2516,0.2599,0.2758,0.2795,0.2963,0.3081,0.3254,0.3379,0.3538,0.3623,0.3754,0.3842,0.3956,0.4019,0.4022,0.4003,0.4096,0.3928,0.3859,0.3592,0.3551,0.3911,0.3889,0.409,0.409,0.409,0.4089,0,0.2474,0.2547,0.2682,0.2865,0.2937,0.3072,0.3304,0.3387,0.3555,0.3682,0.3728,0.3882,0.3952,0.4035,0.4085,0.4027,0.4016,0.3963,0.3644,0.3538,0.3751,0.3736,0.3829,0.3825,0.3821,0.3817,0.3814,0,0.2472,0.2524,0.273,0.2807,0.2904,0.3096,0.319,0.3387,0.3447,0.3667,0.3681,0.3827,0.3831,0.3893,0.3833,0.3807,0.3924,0.3485,0.3395,0.3813,0.3736,0.3728,0.3719,0.3079,0.307,0.3063,0.3058,0,0.2496,0.2565,0.2655,0.2783,0.2904,0.3057,0.319,0.3251,0.341,0.3481,0.3517,0.3544,0.3611,0.3429,0.343,0.3372,0.3473,0.3336,0.3868,0.3181,0.3106,0.303,0.3046,0.2995,0.3001,0.3006,0.3009,0.3012,0.2516,0.2605,0.2665,0.2776,0.2888,0.295,0.2994,0.3058,0.3109,0.3114,0.3219,0.3136,0.3153,0.2982,0.2884,0.285,0.3089,0.2945,0.2967,0.2997,0.289,0.2811,0.2625,0.2628,0.2632,0.2635,0.2638,0,0.249,0.2544,0.2641,0.2716,0.2729,0.2844,0.2906,0.2841,0.2765,0.2785,0.2733,0.2457,0.2344,0.2425,0.2253,0.2226,0.222,0.2152,0.2125,0.2188,0.2245,0.2101,0.1625,0.1622,0.1619,0.1617,0,0,0.2466,0.2485,0.2505,0.2491,0.2546,0.2498,0.2503,0.2411,0.2367,0.218,0.2088,0.219,0.2298,0.1916,0.1868,0.1719,0.1941,0.165,0.2461,0.249,0.2542,0.2698,0.2547,0,0,0,0,0]},{"header":{"parameterUnit":"m.s-1","parameterCategory":2,"la1":30.2991,"la2":30.254,"lo1":-89.0895,"lo2":-89.0444,"dy":0.0017,"dx":0.0017,"nx":28,"ny":28,"refTime":"2024-04-15T03:00:00:Z","depth":"2","parameterNumber":3,"parameterNumberName":"V-component_of_CURRENTS"},"data":[0,0,0,0,0,0,0,0,0,0,0,0,0,0,0,0,0,0,0,0,0,0,0,0,0,0,0,0,0,0,0,0,0,0,0,0,0,0,0,0,0,0,0,0,0,0,0,0,0,0,0,0,0,0,0,0,0,0,-0.0085,-0.0086,0,-0.0144,-0.0145,-0.0145,-0.0165,-0.0166,-0.0166,-0.0166,-0.0252,-0.0255,-0.0257,0,0,0,0,0,0,0,0,0,0,0,0,0,-0.0012,-0.0013,-0.0085,-0.0086,-0.0087,-0.0144,-0.0145,-0.0145,-0.0165,-0.0166,-0.0166,-0.0166,-0.0252,-0.0254,-0.0257,0,0,0,0,0,0,0,0,0,0,0,0,0,-0.0052,-0.0013,-0.0085,-0.0106,-0.0109,-0.0144,-0.0145,-0.0145,-0.0165,-0.0166,-0.0166,-0.0166,-0.0251,-0.0254,-0.0257,-0.0276,0,0,-0.0268,-0.0269,0,0,0,0,0,0,0,0,-0.0049,-0.0054,-0.0102,-0.0105,-0.0108,-0.015,-0.0151,-0.0192,-0.0165,-0.0141,-0.0166,-0.0166,-0.0223,-0.0229,-0.0234,-0.028,-0.0284,-0.0268,-0.027,-0.0271,-0.0272,0,0,0,0,0,0,0,-0.0046,-0.0052,-0.0105,-0.0103,-0.0107,-0.0121,-0.0126,-0.0159,-0.0178,-0.0143,-0.0145,-0.0157,-0.0224,-0.0231,-0.0237,-0.0285,-0.0268,-0.0271,-0.0273,-0.0274,-0.0313,-0.0312,0,0,0,0,0,0,-0.0045,-0.0049,-0.0103,-0.0107,-0.0082,-0.0123,-0.0128,-0.0134,-0.0178,-0.0185,-0.0157,-0.0158,-0.0225,-0.0233,-0.024,-0.0239,-0.0271,-0.0275,-0.0276,-0.0314,-0.0313,-0.0312,0,0,0,0,0,0,-0.0043,-0.0049,-0.0101,-0.0082,-0.009,-0.0124,-0.013,-0.0135,-0.0143,-0.0189,-0.0196,-0.016,-0.0226,-0.0235,-0.0254,-0.0243,-0.0276,-0.0279,-0.0315,-0.0314,-0.0312,-0.0253,0,0,0,0,0,0,-0.004,-0.0047,-0.0048,-0.0082,-0.0092,-0.0112,-0.0131,-0.0136,-0.0152,-0.0153,-0.0194,-0.0202,-0.0226,-0.0249,-0.0258,-0.0249,-0.0282,-0.0316,-0.0315,-0.0313,-0.0256,-0.025,-0.0244,0,0,0,0,0,-0.0037,-0.0036,-0.0047,-0.0054,-0.0092,-0.0112,-0.0117,-0.014,-0.0151,-0.0148,-0.0171,-0.02,-0.0243,-0.0251,-0.0261,-0.0253,-0.0317,-0.0315,-0.0313,-0.0259,-0.0251,-0.0244,0,0,0,0,0,0,-0.0006,-0.0039,-0.0052,-0.0062,-0.0083,-0.0117,-0.012,-0.0138,-0.0154,-0.0151,-0.0195,-0.0204,-0.0213,-0.024,-0.0248,-0.0256,-0.0283,-0.0283,-0.0238,-0.0231,-0.0225,-0.0202,-0.0285,0,0,0,0,0,-0.0,-0.0007,-0.004,-0.0048,-0.0056,-0.0087,-0.0099,-0.011,-0.0133,-0.014,-0.0175,-0.02,-0.0212,-0.0227,-0.0246,-0.026,-0.0264,-0.0258,-0.0252,-0.0246,-0.0233,-0.0205,-0.0195,-0.0304,-0.0304,-0.0305,0,0,0.0006,-0.0012,-0.0017,-0.0042,-0.0059,-0.0061,-0.0093,-0.0101,-0.0097,-0.0148,-0.0157,-0.0183,-0.0209,-0.0214,-0.0221,-0.0238,-0.0223,-0.0244,-0.0239,-0.0228,-0.0202,-0.0191,-0.0181,-0.0303,-0.0303,-0.0303,0,0,0.0021,0.0005,0.0007,-0.0003,-0.0023,-0.0038,-0.0039,-0.0071,-0.0076,-0.0091,-0.0114,-0.0123,-0.0173,-0.0171,-0.018,-0.0152,-0.0188,-0.0172,-0.013,-0.0103,-0.0094,-0.0085,-0.0097,-0.0091,-0.0173,-0.0172,-0.0172,0,0.0032,0.0036,0.0005,0.0009,0.0012,-0.0025,-0.0009,-0.0022,-0.0056,-0.005,-0.0084,-0.0107,-0.0141,-0.0116,-0.0115,-0.0136,-0.0146,-0.0157,-0.0094,-0.0086,-0.0078,-0.0092,-0.0086,-0.0169,-0.017,-0.017,-0.017,0,0.0051,0.006,0.0064,0.0061,0.0055,0.0068,0.0047,0.0044,0.0023,0.0008,0.0017,-0.0019,-0.0029,-0.0046,-0.0083,-0.0044,-0.0079,-0.0086,-0.0111,-0.0063,-0.0082,-0.0076,-0.0165,-0.0166,-0.0167,-0.0168,0,0,0.0072,0.0079,0.0083,0.0109,0.0096,0.0103,0.011,0.012,0.0148,0.0105,0.0152,0.0102,0.0078,0.0069,0.0033,0.004,0.0062,-0.0011,-0.0011,-0.0021,0.0089,0.0044,0.0046,0.0061,0.0062,0.0064,0.0047,0,0.0107,0.0144,0.0132,0.018,0.0206,0.019,0.0208,0.021,0.0199,0.0231,0.0211,0.0229,0.0125,0.0133,0.012,0.0095,0.0084,0.0066,0.0043,0.0042,-0.0,0.0055,0.0065,0.0049,0.0053,0.0054,0.0054,0,0.0137,0.0167,0.0216,0.0273,0.0284,0.0296,0.0342,0.0356,0.0378,0.0376,0.0375,0.0357,0.0358,0.0282,0.0234,0.0221,0.0152,0.0118,0.0117,0.0063,0.001,0.0007,0.006,0.0064,0.0064,0.0063,0.0062,0,0.0192,0.0235,0.0287,0.0301,0.034,0.0363,0.0383,0.0395,0.0449,0.0476,0.0527,0.0496,0.0521,0.044,0.0317,0.0285,0.0276,0.0235,0.0125,0.012,0.012,0.0112,0.0213,0.0213,0.0213,0.0213,0.0213,0,0.0249,0.0297,0.0315,0.0352,0.0432,0.0423,0.051,0.0516,0.0579,0.0682,0.0607,0.069,0.0563,0.0532,0.0392,0.0273,0.0326,0.0148,0.0129,0.0136,0.013,0.0139,0.013,0.0212,0.0213,0.0213,0.0213,0,0.0305,0.0315,0.0389,0.0439,0.046,0.0513,0.0608,0.069,0.07,0.0843,0.0871,0.0862,0.0803,0.0651,0.0543,0.0388,0.0276,0.0214,0.0205,0.0185,0.0076,0.0071,0.0108,0.0107,0.0106,0.0105,0.0104,0,0.0338,0.0376,0.0458,0.0522,0.0547,0.0627,0.0712,0.0749,0.0855,0.096,0.1069,0.1039,0.1042,0.0826,0.0571,0.0331,0.0289,0.0166,0.0111,0.0096,0.0073,0.007,0.0066,0.0123,0.0122,0.0122,0.0121,0,0.0417,0.0436,0.0506,0.0633,0.0724,0.0833,0.0949,0.1049,0.1133,0.1238,0.1357,0.1356,0.1143,0.0905,0.055,0.0383,0.0201,0.0147,0.0185,0.014,0.0107,0.0085,0.0082,0.0117,0.0117,0.0118,0.0118,0.0118,0.0483,0.0547,0.0642,0.0765,0.0871,0.1011,0.1115,0.1258,0.1413,0.1537,0.1546,0.1509,0.1236,0.0768,0.0491,0.0177,0.019,0.0058,0.0062,0.0065,0.0063,0.0029,0.0021,0.0021,0.0021,0.0021,0.0021,0,0.0585,0.066,0.078,0.0923,0.1047,0.108,0.1271,0.1373,0.1554,0.1627,0.1676,0.1389,0.112,0.0798,0.0337,0.0068,0.0049,-0.0025,0.0013,0.0019,0.0024,0.002,-0.0033,-0.0034,-0.0034,-0.0035,0,0,0.0646,0.0785,0.0842,0.1043,0.1138,0.1291,0.1389,0.1525,0.1603,0.1647,0.1599,0.1525,0.1173,0.0824,0.0476,0.0221,0.0176,0.0163,0.0233,0.0325,0.0333,0.0097,0.01,0,0,0,0,0]}],[{"header":{"parameterUnit":"m.s-1","parameterCategory":2,"la1":30.2991,"la2":30.254,"lo1":-89.0895,"lo2":-89.0444,"dy":0.0017,"dx":0.0017,"nx":28,"ny":28,"refTime":"2024-04-15T03:00:00:Z","depth":"4","parameterNumber":2,"parameterNumberName":"U-component_of_CURRENTS"},"data":[0,0,0,0,0,0,0,0,0,0,0,0,0,0,0,0,0,0,0,0,0,0,0,0,0,0,0,0,0,0,0,0,0,0,0,0,0,0,0,0,0,0,0,0,0,0,0,0,0,0,0,0,0,0,0,0,0,0,0.126,0.1259,0,0.1188,0.1187,0.1186,0.1217,0.1219,0.1221,0.1223,0.1231,0.123,0.1228,0,0,0,0,0,0,0,0,0,0,0,0,0,0.1342,0.1341,0.126,0.1259,0.1259,0.1188,0.1187,0.1186,0.1217,0.122,0.1222,0.1224,0.1232,0.123,0.1228,0,0,0,0,0,0,0,0,0,0,0,0,0,0.1289,0.134,0.126,0.1268,0.1268,0.1189,0.1187,0.1186,0.1217,0.122,0.1223,0.1225,0.1233,0.123,0.1228,0.1152,0,0,0.122,0.1219,0,0,0,0,0,0,0,0,0.1292,0.1286,0.1267,0.1267,0.1267,0.1217,0.1219,0.1179,0.1216,0.1233,0.1223,0.1227,0.1234,0.1231,0.1206,0.1153,0.1153,0.122,0.1219,0.1217,0.1217,0,0,0,0,0,0,0,0.1296,0.1289,0.1229,0.1266,0.1266,0.1247,0.1243,0.1211,0.1217,0.1232,0.1235,0.123,0.1234,0.1208,0.1207,0.1153,0.122,0.1218,0.1216,0.1215,0.1159,0.1159,0,0,0,0,0,0,0.1311,0.1292,0.1231,0.1227,0.1291,0.1244,0.1239,0.1228,0.1215,0.1216,0.1228,0.1232,0.1211,0.121,0.1207,0.1258,0.1217,0.1215,0.1214,0.1159,0.1159,0.1159,0,0,0,0,0,0,0.1313,0.1306,0.1234,0.1261,0.1251,0.124,0.1226,0.1225,0.1231,0.1212,0.1215,0.124,0.1213,0.1211,0.1213,0.1254,0.1214,0.1212,0.1159,0.1159,0.1159,0.1269,0,0,0,0,0,0,0.1315,0.1307,0.1318,0.1262,0.125,0.1201,0.1224,0.1222,0.1223,0.1229,0.1222,0.1224,0.1215,0.1217,0.1211,0.125,0.121,0.1159,0.1159,0.1159,0.1266,0.1273,0.1279,0,0,0,0,0,0.1318,0.1308,0.1319,0.1312,0.1261,0.12,0.1192,0.1193,0.1222,0.1212,0.1227,0.1226,0.1213,0.1215,0.1207,0.1247,0.1159,0.1159,0.1159,0.1263,0.1272,0.1279,0,0,0,0,0,0,0.1351,0.1309,0.132,0.1301,0.1266,0.1208,0.1198,0.1201,0.1199,0.1224,0.1217,0.1218,0.1243,0.1209,0.1211,0.1225,0.1188,0.1187,0.1269,0.1277,0.1284,0.1319,0.1208,0,0,0,0,0,0.1362,0.1346,0.1303,0.129,0.1272,0.1242,0.1227,0.1227,0.1209,0.1213,0.1208,0.121,0.1224,0.1226,0.1216,0.1207,0.1233,0.1226,0.1233,0.1239,0.126,0.1348,0.1367,0.1159,0.1159,0.1159,0,0,0.1373,0.1348,0.1342,0.1297,0.1269,0.122,0.1239,0.1216,0.122,0.1212,0.1221,0.1234,0.1227,0.1242,0.1248,0.1227,0.1306,0.1239,0.1246,0.1262,0.135,0.1371,0.139,0.1159,0.1159,0.1159,0,0,0.1352,0.1358,0.1328,0.1288,0.1254,0.1231,0.1231,0.119,0.1227,0.1231,0.1248,0.129,0.1266,0.129,0.1298,0.1324,0.1346,0.1312,0.1376,0.1462,0.1482,0.1499,0.1551,0.1572,0.1311,0.1311,0.1312,0,0.138,0.1321,0.131,0.1254,0.1227,0.1235,0.1189,0.1209,0.1189,0.125,0.1254,0.1301,0.1301,0.1357,0.1382,0.1349,0.1389,0.1355,0.1478,0.1496,0.1512,0.1561,0.1584,0.1317,0.1316,0.1316,0.1315,0,0.1305,0.1271,0.1242,0.1181,0.1157,0.1117,0.113,0.1169,0.1227,0.1267,0.1365,0.1373,0.1425,0.142,0.1419,0.1523,0.1511,0.149,0.1474,0.1542,0.1586,0.1608,0.1324,0.1322,0.1321,0.132,0,0,0.1333,0.1219,0.1213,0.1181,0.112,0.1096,0.1138,0.1191,0.1285,0.1321,0.1447,0.148,0.1544,0.1556,0.156,0.1619,0.1772,0.1614,0.1616,0.1695,0.1959,0.1784,0.179,0.1791,0.1795,0.1799,0.1943,0,0.1285,0.1173,0.114,0.107,0.101,0.105,0.1091,0.1169,0.1279,0.141,0.1512,0.1613,0.1579,0.1645,0.1708,0.1757,0.1835,0.1734,0.1855,0.1858,0.172,0.1811,0.1813,0.1959,0.1964,0.1967,0.197,0,0.1213,0.1151,0.1064,0.1035,0.1026,0.1024,0.1146,0.1179,0.1382,0.1493,0.1633,0.1732,0.1852,0.1824,0.1959,0.1903,0.1962,0.1981,0.1987,0.1804,0.1723,0.1874,0.2009,0.2006,0.2003,0.2,0.1998,0,0.1196,0.111,0.1054,0.1021,0.0989,0.1052,0.1082,0.1235,0.1332,0.1573,0.1696,0.185,0.1964,0.2045,0.2104,0.2074,0.2242,0.2202,0.2093,0.208,0.2149,0.2128,0.2341,0.2341,0.234,0.234,0.234,0,0.1122,0.1083,0.1067,0.1017,0.1051,0.1051,0.1161,0.125,0.1432,0.1561,0.1742,0.187,0.204,0.2158,0.218,0.2186,0.2313,0.2132,0.212,0.2184,0.2166,0.2164,0.2141,0.2345,0.2344,0.2343,0.2342,0,0.1075,0.1039,0.0984,0.0992,0.1019,0.1051,0.1165,0.126,0.1425,0.1608,0.1701,0.1951,0.2087,0.2192,0.2341,0.2269,0.2294,0.2274,0.2337,0.2322,0.2062,0.2044,0.2183,0.2179,0.2175,0.2171,0.2169,0,0.1017,0.0974,0.0974,0.0974,0.0987,0.1054,0.111,0.1252,0.1348,0.1619,0.1698,0.1947,0.209,0.2142,0.2245,0.2286,0.2254,0.2259,0.2162,0.2079,0.2055,0.2042,0.2029,0.2162,0.2161,0.216,0.2159,0,0.091,0.0936,0.0904,0.0932,0.0979,0.101,0.1105,0.1169,0.1349,0.1526,0.1694,0.1822,0.1978,0.2075,0.2131,0.2142,0.224,0.2217,0.2225,0.2134,0.2055,0.2032,0.2024,0.2146,0.2147,0.2149,0.215,0,0.0869,0.0841,0.0841,0.0874,0.0926,0.0955,0.1003,0.1112,0.1217,0.1501,0.1555,0.1777,0.1972,0.2003,0.2035,0.2047,0.2018,0.1942,0.1963,0.198,0.184,0.1705,0.1706,0,0,0,0,0,0.0813,0.0775,0.0779,0.0795,0.0865,0.0906,0.0996,0.1058,0.1246,0.1321,0.1435,0.157,0.1696,0.18,0.1773,0.1929,0.2005,0.1887,0.1922,0.2069,0.2085,0.1935,0,0,0,0,0,0,0.0768,0.075,0.0743,0.0758,0.0778,0.0841,0.0891,0.1,0.1038,0.1239,0.1309,0.1471,0.1601,0.1711,0.1752,0.1778,0.1762,0.201,0.2005,0.206,0.2075,0.2088,0.1939,0,0,0,0,0]},{"header":{"parameterUnit":"m.s-1","parameterCategory":2,"la1":30.2991,"la2":30.254,"lo1":-89.0895,"lo2":-89.0444,"dy":0.0017,"dx":0.0017,"nx":28,"ny":28,"refTime":"2024-04-15T03:00:00:Z","depth":"4","parameterNumber":3,"parameterNumberName":"V-component_of_CURRENTS"},"data":[0,0,0,0,0,0,0,0,0,0,0,0,0,0,0,0,0,0,0,0,0,0,0,0,0,0,0,0,0,0,0,0,0,0,0,0,0,0,0,0,0,0,0,0,0,0,0,0,0,0,0,0,0,0,0,0,0,0,0.0078,0.0078,0,0.0112,0.0113,0.0113,0.0099,0.0098,0.0097,0.0096,0.0129,0.013,0.0132,0,0,0,0,0,0,0,0,0,0,0,0,0,0.006,0.006,0.0078,0.0079,0.0079,0.0112,0.0113,0.0113,0.0099,0.0098,0.0097,0.0096,0.0128,0.013,0.0132,0,0,0,0,0,0,0,0,0,0,0,0,0,0.0079,0.006,0.0078,0.0075,0.0075,0.0112,0.0113,0.0113,0.0099,0.0098,0.0097,0.0095,0.0128,0.013,0.0133,0.0176,0,0,0.014,0.0142,0,0,0,0,0,0,0,0,0.0078,0.008,0.0075,0.0075,0.0075,0.0099,0.0118,0.0134,0.01,0.0091,0.0096,0.0095,0.0119,0.0122,0.0133,0.0178,0.0179,0.0141,0.0142,0.0143,0.0144,0,0,0,0,0,0,0,0.0077,0.0079,0.0093,0.0076,0.0076,0.0092,0.0093,0.0121,0.0113,0.0092,0.0091,0.0093,0.0119,0.0131,0.0134,0.018,0.0141,0.0143,0.0145,0.0146,0.0238,0.0239,0,0,0,0,0,0,0.0069,0.0077,0.0092,0.0094,0.0072,0.0093,0.0094,0.0094,0.0113,0.0114,0.0094,0.0092,0.0127,0.0131,0.0135,0.0185,0.0143,0.0146,0.0147,0.0237,0.0238,0.0239,0,0,0,0,0,0,0.0068,0.0069,0.009,0.0085,0.0089,0.0094,0.0094,0.0095,0.0108,0.0115,0.0116,0.0106,0.0126,0.0131,0.0166,0.0186,0.0147,0.0149,0.0236,0.0238,0.0239,0.0286,0,0,0,0,0,0,0.0067,0.0069,0.0071,0.0085,0.0089,0.0121,0.0096,0.0097,0.011,0.0108,0.0125,0.0126,0.0125,0.0162,0.0168,0.0188,0.0151,0.0235,0.0237,0.0239,0.0283,0.0289,0.0293,0,0,0,0,0,0.0067,0.0078,0.0071,0.0073,0.009,0.0122,0.0126,0.0126,0.0112,0.013,0.0137,0.0126,0.0176,0.0166,0.0173,0.0194,0.0234,0.0236,0.0238,0.0281,0.0288,0.0293,0,0,0,0,0,0,0.0072,0.0078,0.007,0.0082,0.0102,0.0119,0.0136,0.0134,0.0155,0.0152,0.015,0.0153,0.0182,0.0188,0.0175,0.0223,0.02,0.0203,0.023,0.0236,0.0241,0.0241,0.0153,0,0,0,0,0,0.0074,0.0081,0.0094,0.0104,0.0117,0.0128,0.0141,0.0144,0.016,0.0167,0.0177,0.0187,0.0199,0.0216,0.0227,0.0271,0.0235,0.0285,0.029,0.0294,0.0299,0.0249,0.0249,0.0246,0.0246,0.0246,0,0,0.0078,0.0083,0.0085,0.0106,0.0122,0.0164,0.0134,0.0162,0.0194,0.017,0.0217,0.0206,0.0212,0.0247,0.0261,0.0256,0.0278,0.0297,0.0301,0.0303,0.0251,0.0251,0.0251,0.0248,0.0247,0.0247,0,0,0.0104,0.0098,0.012,0.0149,0.0176,0.0189,0.02,0.0224,0.0231,0.0276,0.0251,0.0252,0.0297,0.029,0.0296,0.034,0.0298,0.0345,0.0386,0.0337,0.0337,0.0336,0.0292,0.0286,0.0358,0.0358,0.0358,0,0.0108,0.0141,0.0135,0.018,0.0213,0.0206,0.0259,0.0273,0.0303,0.0309,0.0298,0.0313,0.0316,0.0334,0.0348,0.0352,0.0316,0.0362,0.0342,0.034,0.0338,0.0294,0.0287,0.036,0.036,0.036,0.036,0,0.0162,0.0198,0.0222,0.0272,0.0306,0.0351,0.0374,0.0397,0.0399,0.0399,0.0408,0.0395,0.0401,0.0397,0.0396,0.0388,0.0364,0.0344,0.0323,0.0341,0.0293,0.0286,0.0364,0.0363,0.0362,0.0362,0,0,0.0156,0.0241,0.0253,0.0303,0.0363,0.0401,0.045,0.0487,0.0511,0.0506,0.0522,0.052,0.0482,0.0484,0.0459,0.0422,0.038,0.0389,0.0385,0.034,0.0271,0.0258,0.0247,0.035,0.0349,0.0349,0.0243,0,0.0207,0.0307,0.0334,0.0441,0.0503,0.0524,0.0573,0.0598,0.0602,0.0613,0.0561,0.0569,0.0525,0.0525,0.0478,0.0399,0.0362,0.041,0.0266,0.0262,0.0242,0.0239,0.0345,0.0237,0.0235,0.0234,0.0233,0,0.026,0.0325,0.0435,0.0538,0.0565,0.0629,0.0699,0.0734,0.0731,0.0727,0.0697,0.0654,0.0603,0.0563,0.0424,0.0455,0.0378,0.0307,0.0301,0.0266,0.0234,0.0215,0.0218,0.022,0.0221,0.0222,0.0223,0,0.0278,0.0398,0.0489,0.0532,0.064,0.0695,0.0743,0.0771,0.0798,0.0791,0.0793,0.0716,0.0679,0.0559,0.0421,0.0422,0.0253,0.0235,0.0147,0.0145,0.0166,0.0168,0.0143,0.0143,0.0143,0.0143,0.0144,0,0.033,0.0406,0.0516,0.0576,0.0685,0.074,0.083,0.0855,0.0881,0.09,0.0847,0.0829,0.0674,0.0561,0.0432,0.026,0.0258,0.015,0.0115,0.019,0.0196,0.016,0.0164,0.0139,0.014,0.0141,0.0142,0,0.0348,0.0413,0.0526,0.0655,0.0703,0.0779,0.0896,0.0945,0.096,0.0981,0.0981,0.0902,0.0754,0.059,0.0391,0.028,0.0119,0.0066,0.0161,0.0134,0.004,0.0048,-0.0048,-0.005,-0.0051,-0.0052,-0.0053,0,0.037,0.0432,0.0579,0.0644,0.0717,0.0835,0.0912,0.0979,0.1016,0.1014,0.1012,0.0906,0.0828,0.0529,0.0362,0.0112,0.0082,0.0002,0.0019,0.0044,0.002,0.0029,0.0038,-0.0054,-0.0055,-0.0055,-0.0055,0,0.0413,0.0459,0.0547,0.0681,0.0789,0.0892,0.0999,0.1029,0.1076,0.1095,0.1029,0.0898,0.0732,0.0518,0.0332,0.0153,0.0051,-0.0011,-0.001,0.0006,0.0035,0.0014,0.0024,-0.0059,-0.0059,-0.0059,-0.0058,0,0.0433,0.0493,0.0601,0.0722,0.0832,0.0918,0.0976,0.1028,0.1068,0.1061,0.1033,0.0877,0.0795,0.0538,0.036,0.0188,0.0145,0.0088,0.0084,0.0086,0.0158,0.0217,0.0146,0,0,0,0,0,0.0458,0.0531,0.0637,0.0759,0.0856,0.0925,0.1021,0.1061,0.1103,0.1058,0.1049,0.0898,0.0646,0.0542,0.0365,0.0329,0.011,0.0115,0.0042,-0.0082,-0.0077,-0.0017,0,0,0,0,0,0,0.0475,0.0575,0.064,0.0766,0.0838,0.0952,0.1006,0.1035,0.1006,0.1015,0.0881,0.0846,0.0598,0.0741,0.0357,0.0309,0.0236,0.001,0.0006,-0.0085,-0.0081,-0.0077,-0.0013,0,0,0,0,0]}]]